sat.trackr.live / text

‹ back to catalog

GALAXY 36 (G-36)

NORAD 54742 · 2022-170B

PAYLOAD ACTIVE UNKNOWN

§ Identity

Operator
Country
ITSO
Launch date
2022-12-13
Launch site
FRGUI
Launch vehicle
Mass (kg)
RCS (m²)

Purposes: comms

External: N2YO · Heavens-Above · Gunter

§ Orbital elements

Epoch: 2026-05-25T03:26:38.623776Z

Period
1,436.09 min
Inclination
0.0128°
Eccentricity
0.0002749
Mean motion
1.00271960 rev/d
Perigee alt
35,775.0 km
Apogee alt
35,798.1 km
Semi-major
42,164.7 km
B*
0.0000e+0
RAAN
262.8762°
Arg perigee
169.2250°
Mean anomaly
133.2915°
Rev number
1,254

§ Raw data

GALAXY 36 (G-36)1 54742U 22170B   26145.14350259 -.00000187  00000+0  00000+0 0  99962 54742   0.0128 262.8762 0002749 169.2250 133.2915  1.00271960 12547

JSON: /api/v1/satellites/54742 · /tle

For live sub-satellite position, see the globe view (requires WebGL).

§ Visibility from observer

Set your observer location to see the next 7 days of passes ≥ 10°. The values pass through the URL so the page stays shareable.

No JS? Fill the form by hand. The geolocation button needs JavaScript.